KK7UNF Weather Reports


Display with metric or nautical units.
time (UTC)temp
F
wind
direction
speed
MPH
gust
MPH
rain 1hr
in
rain 24hr
in
rain mn
in
humidity
%
barometer
mb
20260505021544 77 0 0.0 3.0 0.00 0.00 0.00 50 1009.9
20260505020041 77 269 0.0 6.0 0.00 0.00 0.00 49 1009.9
20260505014600 77 271 0.0 6.0 0.00 0.00 0.00 47 1009.9
20260505013041 77 0 1.0 7.0 0.00 0.00 0.00 47 1009.9
20260505011548 78 280 1.0 7.0 0.00 0.00 0.00 47 1010.0
20260505010048 78 0 1.0 8.0 0.00 0.00 0.00 46 1010.0
20260505004543 78 0 0.0 7.0 0.00 0.00 0.00 48 1010.0
20260505003040 79 0 0.0 6.0 0.00 0.00 0.00 45 1010.2
20260505001540 79 277 1.0 7.0 0.00 0.00 0.00 40 1010.2
20260505000048 79 0 1.0 8.0 0.00 0.00 0.00 44 1010.2
20260504234548 79 260 2.0 12.0 0.00 0.00 0.00 43 1010.2
20260504233101 79 0 1.0 9.0 0.00 0.00 0.00 45 1010.3
20260504231543 79 279 2.0 8.0 0.00 0.00 0.00 43 1010.2
20260504230041 79 279 0.0 8.0 0.00 0.00 0.00 44 1010.3
20260504224540 80 276 3.0 13.0 0.00 0.00 0.00 43 1010.3
20260504223056 80 0 1.0 8.0 0.00 0.00 0.00 45 1010.5
20260504221542 80 0 0.0 6.0 0.00 0.00 0.00 44 1010.8
20260504220038 81 294 2.0 9.0 0.00 0.00 0.00 41 1011.0
20260504214536 81 252 3.0 8.0 0.00 0.00 0.00 38 1011.0
20260504213053 82 281 3.0 7.0 0.00 0.00 0.00 39 1011.0
20260504211541 83 277 2.0 8.0 0.00 0.00 0.00 38 1011.0
20260504210042 82 272 2.0 10.0 0.00 0.00 0.00 39 1011.1
20260504204546 81 272 2.0 12.0 0.00 0.00 0.00 37 1011.2
20260504203044 80 294 1.0 9.0 0.00 0.00 0.00 47 1011.2
20260504201542 79 300 1.0 5.0 0.00 0.00 0.00 48 1011.2
20260504200041 78 284 1.0 9.0 0.00 0.00 0.00 49 1011.2
20260504194541 77 160 1.0 7.0 0.00 0.00 0.00 51 1011.3
20260504193047 75 290 1.0 6.0 0.00 0.00 0.00 52 1011.3
20260504191537 73 293 1.0 7.0 0.00 0.00 0.00 55 1011.4
20260504190046 72 0 0.0 8.0 0.00 0.00 0.00 51 1011.6
20260504184540 70 0 1.0 7.0 0.00 0.00 0.00 58 1011.7
20260504183040 69 0 0.0 6.0 0.00 0.00 0.00 63 1011.7
20260504181545 68 277 2.0 7.0 0.00 0.00 0.00 65 1011.7
20260504180046 67 163 1.0 4.0 0.00 0.00 0.00 67 1011.7
20260504174544 66 278 1.0 6.0 0.00 0.00 0.00 67 1011.7
20260504173041 65 273 2.0 4.0 0.00 0.00 0.00 68 1011.8
20260504171547 63 286 1.0 5.0 0.00 0.00 0.00 69 1011.8
20260504081545 58 0 0.0 0.0 0.00 0.00 0.00 79 1010.3
20260504044551 67 0 0.0 3.0 0.00 0.00 0.00 63 1010.2
20260504043040 68 0 0.0 3.0 0.00 0.00 0.00 61 1010.3
20260504041544 68 30 2.0 4.0 0.00 0.00 0.00 59 1010.2
20260504034603 70 28 3.0 7.0 0.00 0.00 0.00 58 1010.2
20260504033041 71 355 0.0 4.0 0.00 0.00 0.00 58 1010.1
20260504031539 72 17 2.0 6.0 0.00 0.00 0.00 57 1009.9
20260504024544 74 33 2.0 5.0 0.00 0.00 0.00 57 1010.0
20260504023041 75 360 2.0 6.0 0.00 0.00 0.00 56 1009.9